[[{"header":{"parameterUnit":"m.s-1","parameterCategory":1,"la1":30.2991,"la2":30.254,"lo1":-89.0895,"lo2":-89.0444,"dy":0.0017,"dx":0.0017,"nx":28,"ny":28,"refTime":"2025-11-22T09:00:00:Z","depth":0,"parameterNumber":2,"parameterNumberName":"U-component_of_WINDS"},"data":[0,0,0,0,0,0,0,0,0,0,0,0,0,0,0,0,0,0,0,0,0,0,0,0,0,0,0,0,0,0,0,0,0,0,0,0,0,0,0,0,0,0,0,0,0,0,0,0,0,0,0,0,0,0,0,0,0,0,-1.9481,-1.9481,0,-1.9543,-1.9544,-1.9544,-1.9513,-1.9511,-1.951,-1.9508,-1.9569,-1.9573,-1.9576,0,0,0,0,0,0,0,0,0,0,0,0,0,-1.9332,-1.9335,-1.9481,-1.9481,-1.9482,-1.9543,-1.9544,-1.9545,-1.9513,-1.9511,-1.9509,-1.9508,-1.9568,-1.9572,-1.9576,0,0,0,0,0,0,0,0,0,0,0,0,0,-1.9396,-1.9336,-1.948,-1.9474,-1.9474,-1.9543,-1.9544,-1.9545,-1.9514,-1.9511,-1.9509,-1.9507,-1.9567,-1.9572,-1.9576,-1.9654,0,0,-1.9591,-1.9593,0,0,0,0,0,0,0,0,-1.9392,-1.9401,-1.9474,-1.9475,-1.9475,-1.9518,-1.9514,-1.9581,-1.9514,-1.9499,-1.9508,-1.9505,-1.9554,-1.956,-1.9577,-1.9657,-1.966,-1.9591,-1.9594,-1.9596,-1.9597,0,0,0,0,0,0,0,-1.9388,-1.9399,-1.9505,-1.9475,-1.9476,-1.9467,-1.9474,-1.9527,-1.9539,-1.95,-1.9498,-1.9506,-1.9554,-1.9572,-1.9578,-1.9661,-1.9591,-1.9595,-1.9598,-1.96,-1.9808,-1.9811,0,0,0,0,0,0,-1.9384,-1.9395,-1.9503,-1.9507,-1.9427,-1.9472,-1.9479,-1.9506,-1.9538,-1.9541,-1.9508,-1.9504,-1.9565,-1.9572,-1.958,-1.9673,-1.9596,-1.9601,-1.9603,-1.9806,-1.9809,-1.9812,0,0,0,0,0,0,-1.9381,-1.9394,-1.9501,-1.9451,-1.9464,-1.9477,-1.9508,-1.9509,-1.9527,-1.9545,-1.9546,-1.9524,-1.9564,-1.9573,-1.9636,-1.9675,-1.9603,-1.9607,-1.9803,-1.9807,-1.981,-1.986,0,0,0,0,0,0,-1.9377,-1.9393,-1.9423,-1.9452,-1.9466,-1.9557,-1.951,-1.9512,-1.9536,-1.9532,-1.9561,-1.9563,-1.9563,-1.9629,-1.9641,-1.968,-1.9611,-1.9799,-1.9804,-1.9809,-1.9855,-1.9865,-1.9874,0,0,0,0,0,-1.9372,-1.9434,-1.9425,-1.9438,-1.9504,-1.9559,-1.9567,-1.9566,-1.9539,-1.9569,-1.958,-1.9562,-1.9669,-1.9636,-1.9649,-1.969,-1.9797,-1.9803,-1.9809,-1.9851,-1.9863,-1.9874,0,0,0,0,0,0,-1.9409,-1.9438,-1.9428,-1.9501,-1.9528,-1.9554,-1.9591,-1.9579,-1.9614,-1.9608,-1.9605,-1.9611,-1.9677,-1.969,-1.9653,-1.9767,-1.9729,-1.9737,-1.9756,-1.9768,-1.9777,-1.9772,-1.9615,0,0,0,0,0,-1.9426,-1.9469,-1.9491,-1.9554,-1.9568,-1.9578,-1.9601,-1.9598,-1.9625,-1.9636,-1.9652,-1.9678,-1.9718,-1.9744,-1.9781,-1.9857,-1.9863,-1.9892,-1.9901,-1.9909,-1.9916,-1.9957,-1.997,-1.9832,-1.9832,-1.9832,0,0,-1.946,-1.9482,-1.9509,-1.9562,-1.9582,-1.9626,-1.9587,-1.9635,-1.9667,-1.9643,-1.9704,-1.9716,-1.9746,-1.9816,-1.9847,-1.9828,-1.9956,-1.9917,-1.9923,-1.9926,-1.9965,-1.9978,-1.999,-1.9836,-1.9835,-1.9835,0,0,-1.9546,-1.9567,-1.9621,-1.9643,-1.9675,-1.9681,-1.9694,-1.9722,-1.973,-1.9791,-1.9774,-1.9812,-1.9881,-1.9902,-1.9922,-2.0018,-2.0002,-2.003,-2.0079,-2.0119,-2.013,-2.014,-2.0173,-2.0185,-2.0038,-2.0038,-2.0038,0,-1.9585,-1.9651,-1.965,-1.97,-1.9723,-1.9706,-1.976,-1.9781,-1.9823,-1.984,-1.9818,-1.9904,-1.9923,-1.9997,-2.0021,-2.0038,-2.0052,-2.0026,-2.0129,-2.0139,-2.0147,-2.0179,-2.0192,-2.0041,-2.004,-2.004,-2.004,0,-1.9697,-1.9743,-1.9783,-1.9825,-1.9854,-1.9905,-1.9912,-1.9941,-1.9936,-1.9945,-2.0007,-2.0029,-2.007,-2.0088,-2.0083,-2.0163,-2.015,-2.0129,-2.009,-2.0164,-2.0194,-2.0206,-2.0045,-2.0044,-2.0043,-2.0042,0,0,-1.9805,-1.9848,-1.9863,-1.9882,-1.9917,-1.9952,-2.0003,-2.0045,-2.0069,-2.0099,-2.0142,-2.0201,-2.0182,-2.0205,-2.0202,-2.0238,-2.0312,-2.0212,-2.0213,-2.0229,-2.04,-2.0414,-2.0428,-2.0302,-2.0305,-2.0307,-2.0397,0,-1.9893,-1.9983,-1.9985,-2.0067,-2.0109,-2.0094,-2.0139,-2.0164,-2.0174,-2.0211,-2.0221,-2.0263,-2.0235,-2.0249,-2.0284,-2.0295,-2.0346,-2.0289,-2.034,-2.0342,-2.0332,-2.0444,-2.0459,-2.0543,-2.0409,-2.0411,-2.0412,0,-2.0006,-2.0041,-2.0128,-2.0158,-2.0175,-2.0215,-2.0254,-2.029,-2.0319,-2.0323,-2.035,-2.0343,-2.0394,-2.0355,-2.0426,-2.0388,-2.0409,-2.0418,-2.0421,-2.0425,-2.038,-2.0449,-2.057,-2.0582,-2.0431,-2.0429,-2.0428,0,-2.0076,-2.0145,-2.0206,-2.0223,-2.0259,-2.0287,-2.0303,-2.033,-2.0355,-2.0389,-2.0405,-2.0444,-2.0466,-2.0496,-2.0499,-2.0471,-2.0571,-2.0532,-2.0575,-2.0575,-2.0595,-2.0594,-2.072,-2.0612,-2.0611,-2.0611,-2.0611,0,-2.0172,-2.0226,-2.0238,-2.0275,-2.0335,-2.0336,-2.0395,-2.0409,-2.0433,-2.0472,-2.0462,-2.0498,-2.0502,-2.054,-2.0543,-2.0601,-2.0611,-2.0615,-2.0615,-2.0615,-2.0615,-2.0628,-2.0622,-2.0615,-2.0614,-2.0613,-2.0613,0,-2.0259,-2.027,-2.0335,-2.0364,-2.0373,-2.0415,-2.044,-2.0475,-2.0485,-2.0535,-2.0546,-2.0561,-2.0605,-2.0612,-2.0664,-2.0666,-2.0735,-2.073,-2.0726,-2.0724,-2.0767,-2.0762,-2.0905,-2.0923,-2.0804,-2.0805,-2.0806,0,-2.032,-2.0361,-2.0395,-2.0421,-2.0439,-2.0481,-2.0507,-2.051,-2.0538,-2.0575,-2.0606,-2.0649,-2.0684,-2.0756,-2.077,-2.081,-2.0804,-2.0852,-2.081,-2.0809,-2.0804,-2.0801,-2.0804,-2.0859,-2.0861,-2.0862,-2.0862,0,-2.0425,-2.0428,-2.0467,-2.0507,-2.0539,-2.0571,-2.0601,-2.0623,-2.063,-2.0662,-2.0708,-2.0735,-2.0788,-2.0831,-2.0871,-2.0887,-2.0876,-2.0876,-2.0888,-2.0887,-2.0883,-2.0885,-2.0746,-2.0872,-2.0871,-2.087,-2.087,-2.0869,-2.05,-2.0535,-2.0565,-2.0608,-2.0632,-2.0661,-2.0695,-2.071,-2.0748,-2.0793,-2.0793,-2.0843,-2.0871,-2.0924,-2.0942,-2.0981,-2.0966,-2.0983,-2.0987,-2.0991,-2.0995,-2.0878,-2.0989,-2.0988,-2.0988,-2.0988,-2.0988,0,-2.0603,-2.0622,-2.0662,-2.0705,-2.0739,-2.0728,-2.0761,-2.079,-2.0834,-2.0862,-2.0897,-2.095,-2.0992,-2.1011,-2.1052,-2.108,-2.1076,-2.109,-2.1087,-2.1091,-2.1007,-2.0992,-2.1093,-2.1093,-2.1093,-2.1093,-2.1093,-2.1093,-2.0661,-2.0721,-2.0728,-2.08,-2.0818,-2.0867,-2.0887,-2.0914,-2.0936,-2.0996,-2.1031,-2.1043,-2.1068,-2.1111,-2.1149,-2.1153,-2.1168,-2.1185,-2.1187,-2.1108,-2.1097,-2.1087,-2.1073,-2.1189,-2.1189,-2.1268,-2.1269,-2.1269]},{"header":{"parameterUnit":"m.s-1","parameterCategory":1,"la1":30.2991,"la2":30.254,"lo1":-89.0895,"lo2":-89.0444,"dy":0.0017,"dx":0.0017,"nx":28,"ny":28,"refTime":"2025-11-22T09:00:00:Z","depth":0,"parameterNumber":3,"parameterNumberName":"V-component_of_WINDS"},"data":[0,0,0,0,0,0,0,0,0,0,0,0,0,0,0,0,0,0,0,0,0,0,0,0,0,0,0,0,0,0,0,0,0,0,0,0,0,0,0,0,0,0,0,0,0,0,0,0,0,0,0,0,0,0,0,0,0,0,-1.8194,-1.8193,0,-1.8125,-1.8124,-1.8123,-1.8058,-1.8057,-1.8056,-1.8055,-1.7984,-1.7983,-1.7982,0,0,0,0,0,0,0,0,0,0,0,0,0,-1.8266,-1.8265,-1.8194,-1.8193,-1.8192,-1.8125,-1.8124,-1.8123,-1.8058,-1.8057,-1.8056,-1.8055,-1.7984,-1.7983,-1.7982,0,0,0,0,0,0,0,0,0,0,0,0,0,-1.8219,-1.8264,-1.8194,-1.8151,-1.8147,-1.8125,-1.8124,-1.8123,-1.8058,-1.8057,-1.8055,-1.8054,-1.7985,-1.7983,-1.7982,-1.7996,0,0,-1.7976,-1.7976,0,0,0,0,0,0,0,0,-1.8222,-1.8217,-1.8158,-1.8154,-1.8149,-1.8099,-1.8123,-1.808,-1.8058,-1.8092,-1.8055,-1.8054,-1.8023,-1.8018,-1.8008,-1.7993,-1.799,-1.7976,-1.7975,-1.7975,-1.7974,0,0,0,0,0,0,0,-1.8225,-1.8219,-1.8166,-1.8158,-1.8152,-1.8135,-1.8127,-1.8115,-1.8065,-1.8089,-1.8084,-1.8076,-1.802,-1.801,-1.8006,-1.7989,-1.7976,-1.7975,-1.7974,-1.7973,-1.7979,-1.798,0,0,0,0,0,0,-1.8235,-1.8222,-1.8169,-1.8164,-1.8183,-1.8134,-1.8126,-1.8116,-1.8065,-1.8056,-1.8078,-1.8074,-1.8013,-1.8008,-1.8003,-1.8015,-1.7975,-1.7973,-1.7972,-1.7978,-1.798,-1.7981,0,0,0,0,0,0,-1.8237,-1.8231,-1.8171,-1.8192,-1.8183,-1.8135,-1.8124,-1.8115,-1.8105,-1.8057,-1.8048,-1.8076,-1.8012,-1.8005,-1.7998,-1.8012,-1.7972,-1.7971,-1.7977,-1.7979,-1.798,-1.8041,0,0,0,0,0,0,-1.8239,-1.8232,-1.8238,-1.8193,-1.8182,-1.8168,-1.8125,-1.8115,-1.8102,-1.8096,-1.8053,-1.8045,-1.8011,-1.8001,-1.7996,-1.8009,-1.7969,-1.7975,-1.7978,-1.798,-1.8038,-1.8045,-1.8051,0,0,0,0,0,-1.8242,-1.8258,-1.8239,-1.8233,-1.8189,-1.8169,-1.8163,-1.8124,-1.8104,-1.8108,-1.8077,-1.8046,-1.8011,-1.8001,-1.7995,-1.8007,-1.7974,-1.7977,-1.798,-1.8035,-1.8043,-1.805,0,0,0,0,0,0,-1.8307,-1.8252,-1.8229,-1.8232,-1.8206,-1.8158,-1.8164,-1.8135,-1.8114,-1.811,-1.8061,-1.8052,-1.8049,-1.8027,-1.8017,-1.8017,-1.7988,-1.799,-1.8032,-1.804,-1.8046,-1.8051,-1.7968,0,0,0,0,0,-1.8322,-1.8311,-1.8263,-1.8269,-1.8257,-1.8213,-1.8203,-1.8175,-1.8146,-1.8135,-1.8103,-1.8076,-1.8058,-1.8048,-1.8029,-1.8034,-1.8022,-1.8039,-1.8046,-1.8051,-1.8053,-1.8052,-1.8058,-1.799,-1.7989,-1.7989,0,0,-1.8352,-1.832,-1.8317,-1.8282,-1.8258,-1.8247,-1.8204,-1.8195,-1.8186,-1.8133,-1.8124,-1.8099,-1.8065,-1.8063,-1.8061,-1.8045,-1.807,-1.8055,-1.806,-1.8058,-1.8055,-1.8062,-1.8067,-1.7991,-1.7991,-1.7991,0,0,-1.8401,-1.8376,-1.8378,-1.8355,-1.832,-1.829,-1.829,-1.8246,-1.8228,-1.8218,-1.8177,-1.8165,-1.8137,-1.8113,-1.8098,-1.8135,-1.8105,-1.8131,-1.8165,-1.8164,-1.8169,-1.8174,-1.8186,-1.8191,-1.8133,-1.8133,-1.8133,0,-1.8442,-1.8425,-1.8382,-1.8375,-1.836,-1.8311,-1.8311,-1.8291,-1.8252,-1.8242,-1.8225,-1.8186,-1.816,-1.8151,-1.816,-1.8149,-1.8147,-1.8136,-1.8172,-1.8176,-1.818,-1.819,-1.8195,-1.8136,-1.8136,-1.8135,-1.8135,0,-1.8477,-1.8465,-1.8471,-1.8433,-1.8419,-1.8416,-1.8371,-1.8362,-1.8334,-1.8305,-1.8294,-1.826,-1.8233,-1.8229,-1.8202,-1.8215,-1.8206,-1.8181,-1.8151,-1.819,-1.8199,-1.8203,-1.8141,-1.814,-1.8139,-1.8138,0,0,-1.8566,-1.8504,-1.8506,-1.8488,-1.8444,-1.8434,-1.8427,-1.8401,-1.8392,-1.8366,-1.8358,-1.8334,-1.831,-1.8293,-1.8262,-1.8262,-1.8291,-1.8236,-1.8235,-1.8247,-1.8301,-1.8319,-1.8325,-1.8271,-1.8271,-1.8272,-1.8303,0,-1.8607,-1.8593,-1.8553,-1.8551,-1.8538,-1.849,-1.8484,-1.8456,-1.8429,-1.8413,-1.8382,-1.8365,-1.8335,-1.8324,-1.8321,-1.8288,-1.8301,-1.8285,-1.8261,-1.8261,-1.8271,-1.833,-1.835,-1.8381,-1.8306,-1.8307,-1.8307,0,-1.8653,-1.8629,-1.8626,-1.8581,-1.8574,-1.8569,-1.854,-1.8526,-1.8493,-1.8472,-1.8452,-1.8418,-1.8406,-1.8378,-1.8361,-1.8351,-1.8339,-1.8321,-1.8321,-1.8317,-1.8287,-1.8326,-1.8391,-1.8395,-1.8313,-1.8312,-1.8312,0,-1.8717,-1.8684,-1.8677,-1.8663,-1.861,-1.8608,-1.8586,-1.8551,-1.8536,-1.8511,-1.85,-1.8474,-1.8459,-1.8438,-1.8397,-1.8381,-1.8384,-1.8353,-1.8365,-1.8366,-1.8368,-1.8369,-1.8431,-1.8362,-1.8362,-1.8361,-1.8361,0,-1.8766,-1.8766,-1.8705,-1.87,-1.8697,-1.8651,-1.8649,-1.8622,-1.8591,-1.8579,-1.8536,-1.8526,-1.8473,-1.8456,-1.8424,-1.8413,-1.8407,-1.8389,-1.8381,-1.8393,-1.8395,-1.8384,-1.838,-1.8363,-1.8362,-1.8362,-1.8362,0,-1.8837,-1.8797,-1.8785,-1.8736,-1.8724,-1.8724,-1.8681,-1.8674,-1.8643,-1.8628,-1.8622,-1.8573,-1.8551,-1.8508,-1.8474,-1.8452,-1.8448,-1.8434,-1.846,-1.8454,-1.8469,-1.8468,-1.8525,-1.853,-1.8459,-1.846,-1.8461,0,-1.8871,-1.887,-1.882,-1.8809,-1.8788,-1.8772,-1.8756,-1.871,-1.8696,-1.8655,-1.8653,-1.8627,-1.8604,-1.857,-1.8531,-1.8504,-1.8488,-1.851,-1.8484,-1.8495,-1.8486,-1.8487,-1.8486,-1.8516,-1.8517,-1.8518,-1.8518,0,-1.8936,-1.8915,-1.8895,-1.8867,-1.885,-1.8826,-1.88,-1.8793,-1.874,-1.8726,-1.8702,-1.8684,-1.8648,-1.8623,-1.859,-1.8565,-1.8532,-1.8527,-1.8528,-1.854,-1.8555,-1.8546,-1.8475,-1.8526,-1.8525,-1.8524,-1.8524,-1.8524,-1.8988,-1.8984,-1.8947,-1.8926,-1.8901,-1.8876,-1.8867,-1.8834,-1.8814,-1.8781,-1.8755,-1.8733,-1.8696,-1.8648,-1.8626,-1.8607,-1.8591,-1.8594,-1.8594,-1.8595,-1.86,-1.8558,-1.8601,-1.8601,-1.86,-1.86,-1.86,0,-1.9049,-1.9023,-1.9004,-1.8968,-1.895,-1.8921,-1.8889,-1.8876,-1.8858,-1.8827,-1.8804,-1.8776,-1.875,-1.8708,-1.8679,-1.8671,-1.8655,-1.8665,-1.8665,-1.8659,-1.8616,-1.8617,-1.8678,-1.8678,-1.8678,-1.8678,-1.8678,-1.8678,-1.9079,-1.9069,-1.9044,-1.902,-1.8993,-1.8972,-1.8956,-1.8933,-1.8907,-1.8878,-1.8856,-1.8829,-1.8793,-1.876,-1.8734,-1.8722,-1.8712,-1.8727,-1.871,-1.867,-1.8663,-1.8656,-1.8657,-1.8725,-1.8725,-1.8755,-1.8755,-1.8755]}]]